Regional Weather Roundup
Issued by NWS

Home | Current Version | Previous Version | Text Only | Print | Product List | Glossary Off
Versions: 1 2 3 4 5 6 7 8 9 10 11 12 13 14 15 16 17 18 19 20 21 22 23 24 25 26 27 28 29 30 31 32 33 34 35 36 37 38 39 40 41 42 43 44 45 46 47 48 49 50

000
ASUS43 KMKX 220420
RWRWI

WISCONSIN REGIONAL WEATHER ROUNDUP
NATIONAL WEATHER SERVICE MILWAUKEE/SULLIVAN WI
1100 PM CDT SAT APR 21 2018

NOTE: "FAIR" INDICATES FEW OR NO CLOUDS BELOW 12,000 FEET WITH NO
SIGNIFICANT WEATHER AND/OR OBSTRUCTIONS TO VISIBILITY.

WIZ001-002-006>008-014>016-023>028-220500-
NORTHWEST WISCONSIN

CITY           SKY/WX    TMP DP  RH WIND       PRES   REMARKS
SUPERIOR ARPT  FAIR      32  27  80 CALM      30.36S
ASHLAND        FAIR      31  25  78 SW3       30.37S
HAYWARD        FAIR      31  21  66 CALM      30.36F
SIREN          FAIR      33  19  56 CALM      30.36F
CUMBERLAND     FAIR      34  18  51 CALM      30.36F
RICE LAKE      FAIR      34  28  78 CALM      30.38S
CHETEK         FAIR      34  26  70 CALM      30.36F
LADYSMITH      FAIR      35  24  63 E5        30.37F WCI  31
EAU CLAIRE     FAIR      42  30  62 CALM      30.36S
MENOMONIE      FAIR      42  33  71 CALM      30.37S
NEW RICHMOND   FAIR      38  27  66 SE5       30.36F WCI  34
OSCEOLA        FAIR      37  27  67 CALM      30.38F
$$

WIZ003>005-009-010-017-018-220500-
NORTH CENTRAL WISCONSIN

CITY           SKY/WX    TMP DP  RH WIND       PRES   REMARKS
MANITOWISH WTR FAIR      30  21  69 CALM      30.36S
ARBOR VITAE    FAIR      36  21  55 CALM      30.36S
WOODRUFF       FAIR      36  21  55 CALM      30.36S
RHINELANDER    FAIR      40  26  57 W5        30.36S
EAGLE RIVER    FAIR      31  20  65 CALM      30.36S
LAND O LAKES   FAIR      30  21  67 CALM      30.38S
PHILLIPS       FAIR      31  23  71 CALM      30.35F
TOMAHAWK       FAIR      31  23  73 CALM      30.37S
MEDFORD        FAIR      36  27  69 CALM      30.36S
MERRILL          N/A     31  25  77 CALM      30.37S
$$

WIZ029-030-035-036-043>047-220500-
CENTRAL WISCONSIN

CITY           SKY/WX    TMP DP  RH WIND       PRES   REMARKS
WAUSAU         FAIR      37  27  67 S5        30.35F WCI  33
MOSINEE        FAIR      43  25  49 S3        30.38S
MARSHFIELD     FAIR      43  26  51 SW3       30.36S
STEVENS POINT  FAIR      33  25  70 CALM      30.38S
WAUPACA        FAIR      38  30  74 CALM      30.38S
WAUTOMA        FAIR      35  28  75 CALM      30.38F
WISC RAPIDS    FAIR      37  25  61 CALM      30.38S
CAMP DOUGLAS   FAIR      37  31  79 CALM      30.37S
$$

WIZ011>013-019>022-031-037>040-048>050-220500-
NORTHEAST WISCONSIN

CITY           SKY/WX    TMP DP  RH WIND       PRES   REMARKS
ANTIGO         FAIR      34  28  80 CALM      30.37S
SHAWANO        FAIR      37  26  64 CALM      30.37S
OCONTO         FAIR      33  22  64 CALM      30.38S
STURGEON BAY   FAIR      43  23  45 S6        30.39S
GREEN BAY      FAIR      38  27  64 CALM      30.38F
MANITOWOC      FAIR      35  28  75 CALM      30.40S
APPLETON       CLEAR     43  25  49 CALM      30.37S
CLINTONVILLE   FAIR      37  26  64 CALM      30.37S
OSHKOSH        FAIR      39  31  72 S3        30.38S
$$

WIZ032>034-041-042-053>061-220500-
SOUTHWEST WISCONSIN

CITY           SKY/WX    TMP DP  RH WIND       PRES   REMARKS
LA CROSSE      FAIR      47  33  58 E3        30.37S
SPARTA         FAIR      33  29  84 CALM      30.39R
VIROQUA        FAIR      45  32  61 SE6       30.37S
BOSCOBEL       FAIR      39  34  82 CALM      30.38F
PRAIRIE DU CHI CLOUDY    43  32  67 CALM      30.36F
PLATTEVILLE    FAIR      47  37  68 E6        30.37F
$$

WIZ056-057-062-063-064-067-068-220500-
SOUTH CENTRAL WISCONSIN

CITY           SKY/WX    TMP DP  RH WIND       PRES   REMARKS
REEDSBURG      FAIR      44  32  63 CALM      30.37S
BARABOO/DELLS  FAIR      43  29  56 S3        30.38F
LONE ROCK      FAIR      41  36  82 E3        30.39S
MINERAL POINT  FAIR      46  36  66 E5        30.37F
MADISON        MOCLDY    41  33  73 CALM      30.38F
MIDDLETON      FAIR      41  36  83 CALM      30.39F
WATERTOWN      FAIR      37  32  84 CALM      30.38F
MONROE         MOCLDY    46  32  57 NE3       30.37F
JANESVILLE     FAIR      43  32  65 E3        30.39F
$$

WIZ051-052-058>065-066-070>072-220500-
SOUTHEAST WISCONSIN

CITY           SKY/WX    TMP DP  RH WIND       PRES   REMARKS
MILWAUKEE      MOCLDY    45  23  42 CALM      30.40S
WAUKESHA       FAIR      39  23  52 CALM      30.40S
MILWAUKEE/TIMM MOCLDY    41  21  45 CALM      30.40S
RACINE         FAIR      38  25  59 W3        30.41S
BURLINGTON     MOCLDY    39  29  69 CALM      30.40S
KENOSHA        CLOUDY    42  23  46 W3        30.40R
FOND DU LAC    FAIR      37  29  72 S5        30.38F WCI  33
SHEBOYGAN      FAIR      38  30  73 CALM      30.39S
WEST BEND      FAIR      36  28  75 CALM      30.39S
JUNEAU         CLOUDY    42  31  65 CALM      30.40S
$$

LSZ147-162-220500-
LAKE SUPERIOR

STATION/POSITION TIME  TEMP    WIND        PRES    WAVE
                       AIR SEA DIR/SP/G            HT/PER
                 (UTC) (F)     (DEG/KT/KT) (MB)    (FT/S)
DEVILS ISLAND    0400   46     140/  9/ 10 1028.6S
SAXON HARBOR     0340   32     200/  2/  3 1027.4R
$$

LMZ867-665-643>646-220500-
LAKE MICHIGAN

STATION/POSITION TIME  TEMP    WIND        PRES    WAVE
                       AIR SEA DIR/SP/G            HT/PER
                 (UTC) (F)     (DEG/KT/KT) (MB)    (FT/S)
NORTHPORT PIER   0340   43                 1028.4S
KEWAUNEE LAKESHO 0354   43     310/  4/  5 1028.0F
SHEBOYGAN LAKESH 0400   46     270/  6/  6 1029.2F
PORT WASHINGTON  0330   40     300/  1/  2 1030.1S
MILWAUKEE LAKESH 0400   41     230/  2/  3   N/A
KENOSHA   LAKESH 0400   45                 1029.1
$$

TC  - TEMPERATURE IN CELSIUS
VSB - VISIBILITY IN STATUTE MILES
WCI - WIND CHILL INDEX
HX  - HEAT INDEX





USA.gov is the U.S. government's official web portal to all federal, state and local government web resources and services.